La Grande, OR

6:58 PM PDT on October 19, 2019 (GMT -0700)
La Grande-Union County

Weather History for KLGD - August, 2019

Change the Weather History Date:

Friday, August 23, 2019

  Actual Average Record
Temperature  
Mean Temperature 65 °F -  
Max Temperature 86 °F 81 °F 101 °F (1969)
Min Temperature 46 °F 47 °F 34 °F (1992)
Growing Degree Days 15 (Base 50)    
Moisture  
Dew Point 45 °F    
Average Humidity 48    
Maximum Humidity 83    
Minimum Humidity 24    
Precipitation  
Precipitation 0.00 in - - ()
Sea Level Pressure  
Sea Level Pressure 30.36 in    
Wind  
Wind Speed 5 mph (NW)    
Max Wind Speed 10 mph    
Max Gust Speed -    
Visibility 10 miles    
Events      
Averages and records for this station are not official NWS values.
T = Trace of Precipitation, MM = Missing Value Source: NWS Daily Summary

Daily Weather History Graph

Daily Weather History Graph

Search for Another Location

Airport or City:

Astronomy

Aug. 23, 2019 Rise Set
Actual Time 6:02 AM PDT 7:45 PM PDT
Civil Twilight 5:31 AM PDT 8:17 PM PDT
Nautical Twilight 4:53 AM PDT 8:55 PM PDT
Astronomical Twilight 4:11 AM PDT 9:36 PM PDT
Moon 11:53 PM PDT (8/23) 2:06 PM PDT (8/23)
Length of Visible Light 14h 45m
Length of Day
13h 43m
Waning Gibbous, 48% of the Moon is Illuminated
Aug 23
Waning Gibbous
Aug 30
New
Sep 5
First Quarter
Sep 13
Full
Sep 21
Last Quarter

Hourly Weather History & Observations

Time (PDT) Temp. Dew Point Humidity Pressure Visibility Wind Dir Wind Speed Gust Speed Precip Events Conditions
12:56 AM 55.9 °F 44.1 °F 64% 30.40 in 10.0 mi NNW 10.4 mph - N/A   Clear
1:56 AM 55.0 °F 44.1 °F 67% 30.40 in 10.0 mi WNW 5.8 mph - N/A   Clear
2:56 AM 52.0 °F 43.0 °F 71% 30.41 in 10.0 mi WSW 9.2 mph - N/A   Clear
3:56 AM 50.0 °F 42.1 °F 74% 30.42 in 10.0 mi East 6.9 mph - N/A   Clear
4:56 AM 48.9 °F 42.1 °F 77% 30.43 in 10.0 mi Calm Calm - N/A   Clear
5:56 AM 46.9 °F 42.1 °F 83% 30.43 in 10.0 mi Calm Calm - N/A   Clear
7:56 AM 53.1 °F 44.1 °F 71% 30.43 in 10.0 mi Calm Calm - N/A   Clear
8:56 AM 59.0 °F 45.0 °F 60% 30.43 in 10.0 mi Variable 3.5 mph - N/A   Clear
9:56 AM 64.0 °F 46.0 °F 52% 30.42 in 10.0 mi SW 3.5 mph - N/A   Clear
10:56 AM 68.0 °F 48.0 °F 49% 30.40 in 10.0 mi NW 4.6 mph - N/A   Clear
11:56 AM 72.0 °F 48.0 °F 43% 30.38 in 9.0 mi Variable 3.5 mph - N/A   Clear
12:56 PM 78.1 °F 46.0 °F 32% 30.35 in 10.0 mi Variable 3.5 mph - N/A   Clear
1:56 PM 81.0 °F 46.0 °F 29% 30.34 in 10.0 mi East 6.9 mph - N/A   Clear
2:56 PM 82.9 °F 46.9 °F 28% 30.31 in 10.0 mi Variable 4.6 mph - N/A   Clear
3:56 PM 84.0 °F 46.0 °F 26% 30.29 in 10.0 mi Calm Calm - N/A   Clear
4:56 PM 84.0 °F 43.0 °F 24% 30.28 in 10.0 mi North 3.5 mph - N/A   Clear
5:56 PM 82.9 °F 42.1 °F 24% 30.27 in 10.0 mi Calm Calm - N/A   Clear
6:56 PM 81.0 °F 45.0 °F 28% 30.28 in 10.0 mi NW 8.1 mph - N/A   Clear
7:56 PM 75.9 °F 44.1 °F 32% 30.29 in 10.0 mi WNW 8.1 mph - N/A   Clear
8:56 PM 70.0 °F 44.1 °F 39% 30.31 in 10.0 mi North 6.9 mph - N/A   Clear
9:56 PM 69.1 °F 44.1 °F 40% 30.31 in 10.0 mi NW 6.9 mph - N/A   Clear
10:56 PM 66.0 °F 44.1 °F 45% 30.31 in 10.0 mi Variable 5.8 mph - N/A   Clear
11:56 PM 63.0 °F 45.0 °F 52% 30.31 in 10.0 mi Calm Calm - N/A   Clear